User: anonymous   Login
Location: ??????
(55.6500°N, 37.8000°E)
Time: 23:09:48
(UTC+00:00)
Language:

Cosmos 1805 - Orbit

View from above orbital plane
View from above orbital plane
View from above satellite
View from above satellite

Ground track
Ground track

The orbit data is extracted from the following two-line orbital elements,

1 17191U 86097A   24168.87507489  .00010012  00000-0  39815-3 0  9991
2 17191  82.4708  21.2344 0001942 223.5490 136.5595 15.25154079 50274
Epoch (UTC): 16 June 2024 21:00:06
Eccentricity: 0.0001942
inclination: 82.4708°
perigee height: 489 km
apogee height: 491 km
right ascension of ascending node: 21.2344°
argument of perigee: 223.5490°
revolutions per day: 15.25154079
mean anomaly at epoch: 136.5595°
orbit number at epoch: 5027

The dashed part of the orbit path shows where the satellite is in the earth's shadow,  

DLR